Content
SEND FEEDBACK

Daily
Averages
Monthly
Summary
French Polynesia

PAPEETE, FRENCH POLYNESIA


Home > Oceania > French Polynesia
Elevation: 2 meters     Latitude: 17 33S     Longitude: 149 36W

WEATHER
 
SELECT A DAY
Number of Records: 208,734;   Date Range: 6/30/96 - 8/31/14
 
SHARE

PRINT THIS DATA

[ ← Previous Day ]
WEATHER ALMANAC - 3 JANUARY, 2013
[ Next Day → ]
[ °F ]   °C
Weather ElementAverageHighLow
Temperature27 °C30 °C (10:30 am)23 °C (6:00 am)
Dewpoint19.6 °C21 °C (12:30 am)17 °C (5:00 am)
Humidity63.1 %78 % (12:30 am)44 % (2:00 pm)
Barometer1007.5 hPa1009.1 hPa (9:00 pm)1006.1 hPa (2:30 am)
Wind Speed6.6 km/h18 km/h (11:00 am)
Weather ElementAverage
Visibility12.7 km
Wind DirectionSE (136.4 °)

Weather ElementTotal
Precipitation---
Cooling Degree Days8.2 (Base 18.3)
Growing Degree Days16.5 (Base 10)
Averaged from 53 records on 3 January, 2013
WEATHER CONDITIONS BREAKOUT
WIND DIRECTION BREAKOUT
WEATHER BY HOUR - 3 JANUARY, 2013
[ °F ]   °C
Local TimeTemperatureDewpointHumidityBarometerVisibilityWind DirectionWind SpeedGust SpeedPrecipitationEventsConditions
12:30 AM25 °C21 °C78 %1008.1 hPa10 kmCalmScattered Clouds
1:00 AM25 °C21 °C78 %1007.1 hPa10 kmEast (90°)5.6 km/hScattered Clouds
1:30 AM25 °C20 °C74 %1007.1 hPa10 kmEast (100°)5.6 km/hScattered Clouds
2:00 AM24.4 °C20.6 °C72 %1007.1 hPa19.3 kmEast (100°)3.7 km/hScattered Clouds
2:00 AM24 °C20 °C78 %1007.1 hPa10 kmEast (100°)3.7 km/hMostly Cloudy
2:30 AM24 °C20 °C78 %1006.1 hPa10 kmCalmMostly Cloudy
3:00 AM24 °C20 °C78 %1006.1 hPa10 kmSouth (170°)9.3 km/hMostly Cloudy
3:30 AM24 °C20 °C78 %1006.1 hPa10 kmSSE (160°)11.1 km/h
4:00 AM24 °C19 °C73 %1006.1 hPa10 kmSouth (170°)9.3 km/hPartly Cloudy
4:30 AM24 °C18 °C69 %1006.1 hPa10 kmVariable3.7 km/h
5:00 AM23.3 °C17.2 °C61 %1007.5 hPa59.5 kmEast (80°)14.3 km/hClear
5:00 AM24 °C17 °C65 %1007.1 hPa10 kmEast (80°)7.4 km/h
6:00 AM23 °C18 °C73 %1008.1 hPa10 kmESE (110°)7.4 km/hMostly Cloudy
6:30 AM24 °C19 °C73 %1008.1 hPa10 kmCalmMostly Cloudy
7:00 AM26 °C20 °C69 %1008.1 hPa10 kmVariable1.9 km/hMostly Cloudy
7:30 AM27 °C19 °C61 %1008.1 hPa10 kmWest (280°)3.7 km/hMostly Cloudy
8:00 AM27.8 °C19.4 °C51 %1008.8 hPa30.6 kmWSW (250°)1.9 km/hPartly Cloudy
8:00 AM28 °C19 °C58 %1008.1 hPa10 kmVariable1.9 km/hMostly Cloudy
8:30 AM29 °C19 °C55 %1008.1 hPa10 kmWSW (240°)5.6 km/hMostly Cloudy
9:00 AM29 °C20 °C58 %1008.1 hPa10 kmVariable5.6 km/hMostly Cloudy
9:30 AM29 °C20 °C58 %1008.1 hPa10 kmNorth (350°)5.6 km/hMostly Cloudy
10:00 AM29 °C20 °C58 %1008.1 hPa10 kmNorth (350°)7.4 km/hMostly Cloudy
10:30 AM30 °C21 °C58 %1008.1 hPa10 kmNW (310°)5.6 km/hMostly Cloudy
11:00 AM29.4 °C20 °C47 %1007.8 hPa30.6 kmWest (270°)18 km/hPartly Cloudy
11:00 AM30 °C20 °C55 %1007.1 hPa10 kmWest (270°)9.3 km/hMostly Cloudy
11:30 AM29 °C20 °C58 %1007.1 hPa10 kmWest (260°)9.3 km/hMostly Cloudy
12:00 PM30 °C20 °C55 %1007.1 hPa10 kmWest (280°)9.3 km/hMostly Cloudy
12:30 PM30 °C21 °C58 %1007.1 hPa10 kmWest (280°)13 km/hMostly Cloudy
1:00 PM30 °C20 °C55 %1007.1 hPa10 kmWNW (300°)13 km/hMostly Cloudy
1:30 PM29 °C20 °C58 %1007.1 hPa10 kmNNE (30°)13 km/hMostly Cloudy
2:00 PM29.4 °C18.9 °C44 %1007.1 hPa25.7 kmNE (50°)9.3 km/hScattered Clouds
2:00 PM30 °C19 °C51 %1006.1 hPa10 kmNE (50°)9.3 km/hMostly Cloudy
2:30 PM30 °C20 °C55 %1006.1 hPa10 kmWest (270°)9.3 km/hMostly Cloudy
3:00 PM30 °C19 °C51 %1006.1 hPa10 kmNW (310°)9.3 km/hMostly Cloudy
3:30 PM30 °C19 °C51 %1006.1 hPa10 kmNNE (20°)11.1 km/hMostly Cloudy
4:00 PM29 °C19 °C55 %1006.1 hPa10 kmNE (40°)11.1 km/hMostly Cloudy
4:30 PM29 °C19 °C55 %1006.1 hPa10 kmNW (310°)5.6 km/hMostly Cloudy
5:00 PM28.9 °C18.9 °C46 %1007.1 hPa25.7 kmNW (310°)5.6 km/hScattered Clouds
5:00 PM29 °C19 °C55 %1007.1 hPa10 kmVariable5.6 km/hMostly Cloudy
5:30 PM28 °C20 °C62 %1007.1 hPa10 kmWNW (300°)5.6 km/hMostly Cloudy
6:00 PM28 °C19 °C58 %1008.1 hPa10 kmNorth (350°)5.6 km/hMostly Cloudy
6:30 PM27 °C19 °C61 %1008.1 hPa10 kmNE (40°)9.3 km/hMostly Cloudy
7:00 PM27 °C20 °C65 %1008.1 hPa10 kmVariable5.6 km/hMostly Cloudy
7:30 PM27 °C20 °C65 %1008.1 hPa10 kmCalmMostly Cloudy
8:00 PM26.1 °C20 °C60 %1008.8 hPa19.3 kmSE (130°)1.9 km/hOvercast
8:00 PM26 °C20 °C69 %1008.1 hPa10 kmVariable1.9 km/hMostly Cloudy
8:30 PM26 °C19 °C65 %1008.1 hPa10 kmSouth (170°)7.4 km/hMostly Cloudy
9:00 PM26 °C20 °C69 %1009.1 hPa10 kmVariable5.6 km/hMostly Cloudy
9:30 PM26 °C20 °C69 %1009.1 hPa10 kmEast (90°)5.6 km/hMostly Cloudy
10:00 PM25 °C20 °C74 %1009.1 hPa10 kmVariable5.6 km/hMostly Cloudy
10:30 PM25 °C20 °C74 %1009.1 hPa10 kmENE (70°)5.6 km/hMostly Cloudy
11:00 PM25 °C20 °C74 %1009.1 hPa10 kmEast (90°)5.6 km/hScattered Clouds
11:30 PM25 °C20 °C74 %1009.1 hPa10 kmVariable5.6 km/hScattered Clouds
Hourly data recorded from NTAA, located 0 kilometers away from Papeete, French Polynesia







STORIES FROM OUR PARTNERS